HARMAJA Weather Reports


time (UTC)temp
C
wind
direction
speed
KPH
gust
KPH
rain 1hr
cm
rain 24hr
cm
rain mn
cm
humidity
%
barometer
mb
20260507064723 6 61 12.9 16.1 0.00 0.00 0.00 55 1016.0
20260507062723 6 59 9.7 16.1 0.00 0.00 0.00 63 1015.8
20260507060723 6 63 12.9 17.7 0.00 0.00 0.00 64 1015.7
20260507054723 6 65 17.7 22.5 0.00 0.00 0.00 60 1015.6
20260507052723 6 60 16.1 20.9 0.00 0.00 0.00 56 1015.6
20260507050723 6 58 17.7 24.1 0.00 0.00 0.00 52 1015.5
20260507044723 5 44 12.9 17.7 0.00 0.00 0.00 56 1015.5
20260507042723 5 44 14.5 19.3 0.00 0.00 0.00 55 1015.5
20260507040723 5 43 11.3 17.7 0.00 0.00 0.00 56 1015.5
20260507034723 5 33 17.7 20.9 0.00 0.00 0.00 54 1015.4
20260507032723 5 31 17.7 19.3 0.00 0.00 0.00 56 1015.3
20260507030723 5 27 17.7 20.9 0.00 0.00 0.00 56 1015.2
20260507024722 5 27 19.3 20.9 0.00 0.00 0.00 54 1015.1
20260507022723 5 28 17.7 20.9 0.00 0.00 0.00 55 1015.1
20260507020723 5 29 17.7 22.5 0.00 0.00 0.00 54 1015.2
20260507014722 5 29 16.1 17.7 0.00 0.00 0.00 56 1015.1
20260507012722 5 33 16.1 19.3 0.00 0.00 0.00 55 1015.1
20260507010722 5 26 19.3 24.1 0.00 0.00 0.00 52 1015.1
20260507004722 5 25 19.3 22.5 0.00 0.00 0.00 50 1015.0
20260507002722 5 26 16.1 19.3 0.00 0.00 0.00 56 1014.9
20260507000722 5 18 17.7 19.3 0.00 0.00 0.00 66 1014.9
20260506234722 5 17 17.7 19.3 0.00 0.00 0.00 67 1014.9
20260506232722 5 17 17.7 20.9 0.00 0.00 0.00 63 1014.8
20260506230723 6 13 19.3 20.9 0.00 0.00 0.00 59 1014.9
20260506224721 6 12 14.5 19.3 0.00 0.00 0.00 68 1014.8
20260506222722 6 2 11.3 12.9 0.00 0.00 0.00 76 1014.8
20260506220722 5 331 12.9 12.9 0.00 0.00 0.00 85 1014.7
20260506214722 5 306 6.4 8.0 0.00 0.00 0.00 88 1014.5
20260506212722 5 267 6.4 8.0 0.00 0.00 0.00 82 1014.5
20260506210721 5 254 9.7 9.7 0.00 0.00 0.00 79 1014.4
20260506204721 5 260 9.7 11.3 0.00 0.00 0.00 81 1014.4
20260506202722 5 254 11.3 14.5 0.00 0.00 0.00 84 1014.4
20260506200721 5 245 11.3 14.5 0.00 0.00 0.00 82 1014.4
20260506194721 5 236 14.5 17.7 0.00 0.00 0.00 80 1014.4
20260506192721 5 229 14.5 16.1 0.00 0.00 0.00 81 1014.3
20260506190721 5 226 14.5 19.3 0.00 0.00 0.00 81 1014.3
20260506184721 5 231 17.7 20.9 0.00 0.00 0.00 78 1014.1
20260506180721 6 225 20.9 24.1 0.00 0.00 0.00 78 1014.1
20260506172720 6 218 24.1 27.4 0.00 0.00 0.00 76 1014.2
20260506170721 6 223 22.5 24.1 0.00 0.00 0.00 76 1014.1
20260506164720 6 228 22.5 25.7 0.00 0.00 0.00 73 1014.0
20260506162721 6 214 20.9 24.1 0.00 0.00 0.00 77 1014.0
20260506160720 6 229 22.5 24.1 0.00 0.00 0.00 74 1014.1
20260506154721 6 227 24.1 27.4 0.00 0.00 0.00 74 1014.1
20260506152721 6 232 24.1 27.4 0.00 0.00 0.00 72 1014.1
20260506150720 6 235 27.4 30.6 0.00 0.00 0.00 72 1014.1
20260506144720 6 227 29.0 33.8 0.00 0.00 0.00 73 1014.3
20260506142720 6 219 29.0 33.8 0.00 0.00 0.00 73 1014.3
20260506140720 7 230 30.6 37.0 0.00 0.00 0.00 67 1014.2
20260506134720 6 232 32.2 37.0 0.00 0.00 0.00 67 1014.3
20260506132720 6 225 29.0 33.8 0.00 0.00 0.00 70 1014.3
20260506130719 6 230 32.2 35.4 0.00 0.00 0.00 68 1014.3
20260506124719 6 227 32.2 37.0 0.00 0.00 0.00 70 1014.3
20260506122719 6 229 33.8 38.6 0.00 0.00 0.00 69 1014.3
20260506120719 6 222 30.6 35.4 0.00 0.00 0.00 74 1014.3
20260506114720 6 219 33.8 40.2 0.00 0.00 0.00 76 1014.3
20260506112720 6 220 37.0 45.1 0.00 0.00 0.00 78 1014.2
20260506110720 6 219 35.4 38.6 0.00 0.00 0.00 73 1014.2
20260506104720 6 219 30.6 33.8 0.00 0.00 0.00 75 1014.1
20260506102720 6 218 32.2 37.0 0.00 0.00 0.00 75 1014.1
20260506100720 6 217 27.4 33.8 0.00 0.00 0.00 74 1013.9
20260506094720 6 214 25.7 30.6 0.00 0.00 0.00 77 1013.8
20260506092720 6 220 27.4 30.6 0.00 0.00 0.00 76 1013.6
20260506090720 6 219 25.7 29.0 0.00 0.00 0.00 76 1013.5
20260506084720 6 210 22.5 25.7 0.00 0.00 0.00 75 1013.4
20260506082720 6 221 24.1 27.4 0.00 0.00 0.00 77 1013.4
20260506080720 6 221 24.1 29.0 0.00 0.00 0.00 75 1013.2
20260506072720 6 226 19.3 22.5 0.00 0.00 0.00 72 1013.0
20260506070720 6 224 19.3 20.9 0.00 0.00 0.00 73 1012.8